Weather History for Le Mars, IA

Change the Weather History Date:

Wednesday, August 21, 2013

  Actual Average Record
Temperature  
Mean Temperature 78 °F -  
Max Temperature 84 °F 84 °F 99 °F (1983)
Min Temperature 71 °F 61 °F 46 °F (2012)
Cooling Degree Days 12    
Growing Degree Days 28 (Base 50)    
Moisture  
Dew Point 68 °F    
Average Humidity 73    
Maximum Humidity 83    
Minimum Humidity 58    
Precipitation  
Precipitation 0.00 in - - ()
Sea Level Pressure  
Sea Level Pressure 29.93 in    
Wind  
Wind Speed 8 mph (SSW)    
Max Wind Speed 14 mph    
Max Gust Speed 18 mph    
Visibility 10 miles    
Events Rain    
Averages and records for this station are not official NWS values.
T = Trace of Precipitation, MM = Missing Value Source: NWS Daily Summary

Daily Weather History Graph

Daily Weather History Graph

Search for Another Location

Airport:

Trip Planner

Search our weather history database for the weather conditions in past years. The results will help you decide how hot, cold, wet, or windy it might be!

Date:

Astronomy

Aug. 21, 2013 Rise Set
Actual Time 6:37 AM CDT 8:16 PM CDT
Civil Twilight 6:07 AM CDT 8:46 PM CDT
Nautical Twilight 5:31 AM CDT 9:22 PM CDT
Astronomical Twilight 4:52 AM CDT 10:01 PM CDT
Moon 8:23 PM CDT (8/21) 7:21 AM CDT (8/21)
Length of Visible Light 14h 38m
Length of Day
13h 39m
Waxing Gibbous, 99% of the Moon is Illuminated
Aug 21
Waxing Gibbous
Aug 28
Last Quarter
Sep 5
New
Sep 12
First Quarter
Sep 19
Full

Hourly Weather History & Observations

Time (CDT) Temp. Heat Index Dew Point Humidity Pressure Visibility Wind Dir Wind Speed Gust Speed Precip Events Conditions
12:15 AM 75.2 °F - 66.2 °F 73% 29.90 in 10.0 mi South 9.2 mph - N/A   Unknown
12:35 AM 75.2 °F - 66.2 °F 73% 29.90 in 10.0 mi South 10.4 mph - N/A   Unknown
12:55 AM 75.2 °F - 66.2 °F 73% 29.90 in 10.0 mi South 9.2 mph - N/A   Unknown
1:15 AM 73.4 °F - 66.2 °F 78% 29.90 in 10.0 mi South 9.2 mph - N/A   Unknown
1:35 AM 75.2 °F - 66.2 °F 73% 29.90 in 10.0 mi South 8.1 mph - N/A   Unknown
1:55 AM 75.2 °F - 66.2 °F 73% 29.90 in 10.0 mi SSW 8.1 mph - N/A   Unknown
2:15 AM 73.4 °F - 66.2 °F 78% 29.90 in 10.0 mi SSW 6.9 mph - N/A   Unknown
2:35 AM 73.4 °F - 66.2 °F 78% 29.91 in 10.0 mi SSW 9.2 mph - N/A   Unknown
2:55 AM 73.4 °F - 66.2 °F 78% 29.90 in 10.0 mi SSW 9.2 mph - N/A   Unknown
3:15 AM 73.4 °F - 66.2 °F 78% 29.91 in 10.0 mi SSW 9.2 mph - N/A   Unknown
3:35 AM 73.4 °F - 66.2 °F 78% 29.92 in 10.0 mi SW 6.9 mph - N/A   Unknown
3:55 AM 71.6 °F - 66.2 °F 83% 29.91 in 10.0 mi SSW 9.2 mph - N/A   Unknown
4:15 AM 71.6 °F - 66.2 °F 83% 29.91 in 10.0 mi South 4.6 mph - N/A   Unknown
4:35 AM 71.6 °F - 66.2 °F 83% 29.90 in 10.0 mi SSW 10.4 mph - N/A   Unknown
4:55 AM 71.6 °F - 66.2 °F 83% 29.90 in 10.0 mi SSW 9.2 mph - N/A   Unknown
5:15 AM 71.6 °F - 66.2 °F 83% 29.91 in 10.0 mi SSW 9.2 mph - N/A   Unknown
5:35 AM 71.6 °F - 66.2 °F 83% 29.90 in 10.0 mi SSW 9.2 mph - N/A   Unknown
5:55 AM 71.6 °F - 66.2 °F 83% 29.90 in 10.0 mi SSW 10.4 mph 16.1 mph N/A   Unknown
6:15 AM 71.6 °F - 66.2 °F 83% 29.91 in 10.0 mi SSW 9.2 mph - N/A   Unknown
6:35 AM 71.6 °F - 64.4 °F 78% 29.90 in 10.0 mi SSW 9.2 mph - N/A   Unknown
6:55 AM 71.6 °F - 64.4 °F 78% 29.90 in 10.0 mi South 9.2 mph - N/A   Unknown
7:15 AM 71.6 °F - 64.4 °F 78% 29.91 in 10.0 mi SSW 11.5 mph - N/A   Unknown
7:35 AM 71.6 °F - 64.4 °F 78% 29.92 in 10.0 mi SSW 9.2 mph - N/A   Unknown
7:55 AM 71.6 °F - 64.4 °F 78% 29.92 in 10.0 mi South 9.2 mph - N/A   Unknown
8:15 AM 71.6 °F - 64.4 °F 78% 29.92 in 10.0 mi South 9.2 mph - N/A   Unknown
8:35 AM 73.4 °F - 66.2 °F 78% 29.91 in 10.0 mi South 10.4 mph - N/A   Unknown
8:55 AM 73.4 °F - 66.2 °F 78% 29.92 in 10.0 mi SSW 11.5 mph 17.3 mph N/A   Unknown
9:15 AM 75.2 °F - 66.2 °F 73% 29.91 in 10.0 mi SSW 11.5 mph - N/A   Unknown
9:35 AM 75.2 °F - 66.2 °F 73% 29.92 in 10.0 mi SSW 11.5 mph 18.4 mph N/A   Unknown
9:55 AM 77.0 °F - 66.2 °F 69% 29.92 in 10.0 mi SSW 11.5 mph - N/A   Unknown
10:15 AM 77.0 °F - 66.2 °F 69% 29.93 in 10.0 mi SSW 11.5 mph - N/A   Unknown
10:35 AM 78.8 °F - 66.2 °F 65% 29.94 in 10.0 mi SSW 9.2 mph - N/A   Unknown
10:55 AM 78.8 °F - 66.2 °F 65% 29.94 in 10.0 mi SSW 13.8 mph - N/A   Unknown
11:15 AM 80.6 °F 82.7 °F 66.2 °F 61% 29.94 in 10.0 mi South 12.7 mph - N/A   Unknown
11:35 AM 82.4 °F 85.4 °F 68.0 °F 62% 29.95 in 10.0 mi SW 10.4 mph - N/A   Unknown
11:55 AM 82.4 °F 85.4 °F 68.0 °F 62% 29.94 in 10.0 mi WSW 9.2 mph - N/A   Unknown
12:15 PM 82.4 °F 85.4 °F 68.0 °F 62% 29.95 in 10.0 mi SW 10.4 mph - N/A   Unknown
12:35 PM 82.4 °F 84.6 °F 66.2 °F 58% 29.94 in 10.0 mi WSW 8.1 mph - N/A   Unknown
12:55 PM 82.4 °F 86.3 °F 69.8 °F 66% 29.94 in 10.0 mi SSW 6.9 mph - N/A   Unknown
1:15 PM 82.4 °F 85.4 °F 68.0 °F 62% 29.94 in 10.0 mi South 6.9 mph - N/A   Unknown
1:35 PM 82.4 °F 86.3 °F 69.8 °F 66% 29.94 in 10.0 mi SSW 10.4 mph - N/A   Unknown
1:55 PM 80.6 °F 83.9 °F 69.8 °F 70% 29.95 in 10.0 mi SW 4.6 mph - N/A   Unknown
2:15 PM 82.4 °F 86.3 °F 69.8 °F 66% 29.95 in 10.0 mi SW 6.9 mph - N/A   Unknown
2:35 PM 82.4 °F 86.3 °F 69.8 °F 66% 29.95 in 10.0 mi SSW 9.2 mph - N/A   Unknown
2:55 PM 84.2 °F 88.4 °F 69.8 °F 62% 29.95 in 10.0 mi SSW 6.9 mph - N/A   Unknown
3:15 PM 84.2 °F 89.6 °F 71.6 °F 66% 29.94 in 10.0 mi South 9.2 mph - N/A   Unknown
3:35 PM 84.2 °F 89.6 °F 71.6 °F 66% 29.94 in 10.0 mi SSW 9.2 mph - N/A   Unknown
3:55 PM 84.2 °F 89.6 °F 71.6 °F 66% 29.95 in 10.0 mi South 6.9 mph - N/A   Unknown
4:15 PM 84.2 °F 88.4 °F 69.8 °F 62% 29.95 in 10.0 mi South 5.8 mph - N/A   Unknown
4:35 PM 84.2 °F 88.4 °F 69.8 °F 62% 29.95 in 10.0 mi South 4.6 mph - N/A   Unknown
4:55 PM 84.2 °F 88.4 °F 69.8 °F 62% 29.96 in 10.0 mi South 3.5 mph - N/A   Unknown
5:15 PM 84.2 °F 88.4 °F 69.8 °F 62% 29.95 in 10.0 mi SSE 3.5 mph - N/A   Unknown
5:35 PM 84.2 °F 89.6 °F 71.6 °F 66% 29.96 in 10.0 mi Calm Calm - N/A   Unknown
5:55 PM 84.2 °F 89.6 °F 71.6 °F 66% 29.96 in 10.0 mi Calm Calm - N/A   Unknown
6:15 PM 82.4 °F 87.2 °F 71.6 °F 70% 29.95 in 10.0 mi Calm Calm - N/A   Unknown
6:35 PM 84.2 °F 89.6 °F 71.6 °F 66% 29.96 in 10.0 mi Calm Calm - N/A   Unknown
6:55 PM 82.4 °F 87.2 °F 71.6 °F 70% 29.96 in 10.0 mi Calm Calm - N/A   Unknown
7:15 PM 82.4 °F 87.2 °F 71.6 °F 70% 29.96 in 10.0 mi Calm Calm - N/A   Unknown
7:35 PM 82.4 °F 87.2 °F 71.6 °F 70% 29.96 in 10.0 mi East 5.8 mph - N/A   Unknown
7:55 PM 80.6 °F 85.4 °F 73.4 °F 79% 29.96 in 7.0 mi ENE 3.5 mph - N/A   Unknown
8:15 PM 80.6 °F 85.4 °F 73.4 °F 79% 29.95 in 7.0 mi ENE 5.8 mph - N/A   Unknown
8:35 PM 78.8 °F - 71.6 °F 78% 29.96 in 7.0 mi North 4.6 mph - N/A   Unknown
8:55 PM 78.8 °F - 71.6 °F 78% 29.97 in 7.0 mi ENE 3.5 mph - N/A   Unknown
9:15 PM 78.8 °F - 71.6 °F 78% 29.98 in 7.0 mi SE 5.8 mph - N/A   Unknown
9:35 PM 78.8 °F - 69.8 °F 74% 29.97 in 7.0 mi SE 5.8 mph - N/A   Unknown
9:55 PM 78.8 °F - 71.6 °F 78% 29.97 in 7.0 mi Calm Calm - N/A   Unknown
10:15 PM 77.0 °F - 71.6 °F 83% 29.96 in 7.0 mi Calm Calm - N/A   Unknown
10:35 PM 77.0 °F - 71.6 °F 83% 29.96 in 7.0 mi Calm Calm - N/A   Unknown
10:55 PM 78.8 °F - 71.6 °F 78% 29.97 in 10.0 mi Calm Calm - N/A   Unknown
11:15 PM 78.8 °F - 71.6 °F 78% 29.97 in 10.0 mi Calm Calm - N/A   Unknown
11:35 PM 78.8 °F - 71.6 °F 78% 29.97 in 10.0 mi Calm Calm - N/A   Unknown
11:55 PM 77.0 °F - 71.6 °F 83% 29.96 in 7.0 mi East 5.8 mph - N/A Rain Light Rain